sat.trackr.live / text

‹ back to catalog

STARLINK-30972

NORAD 58721 · 2024-002S

PAYLOAD ACTIVE UNKNOWN

§ Identity

Operator
Country
US
Launch date
2024-01-03
Launch site
AFWTR
Launch vehicle
Mass (kg)
RCS (m²)

Purposes: comms

External: N2YO · Heavens-Above · Gunter

§ Orbital elements

Epoch: 2026-05-25T05:15:22.348224Z

Period
94.11 min
Inclination
53.1582°
Eccentricity
0.0001044
Mean motion
15.30183856 rev/d
Perigee alt
474.5 km
Apogee alt
476.0 km
Semi-major
6,853.4 km
B*
-2.1087e-5
RAAN
234.3662°
Arg perigee
86.6105°
Mean anomaly
273.5015°
Rev number
13,373

§ Raw data

STARLINK-309721 58721U 24002S   26145.21900866 -.00000983  00000+0 -21087-4 0  99942 58721  53.1582 234.3662 0001044  86.6105 273.5015 15.30183856133730

JSON: /api/v1/satellites/58721 · /tle

For live sub-satellite position, see the globe view (requires WebGL).

§ Visibility from observer

Set your observer location to see the next 7 days of passes ≥ 10°. The values pass through the URL so the page stays shareable.

No JS? Fill the form by hand. The geolocation button needs JavaScript.